Location: Unspecified
(0.0000°N, 0.0000°E)
Time: 05:25:34
(UTC+00:00)

NNS adapter - Visible Passes

Search period start: 17 September 2024 00:00
Search period end: 27 September 2024 00:00
Orbit: 1023 x 1130 km, 89.9° (Epoch: 16 September)

Date Brightness Start Highest point End Pass type
(mag) Time Alt. Az. Time Alt. Az. Time Alt. Az.
17 Sep 9.6 19:23:41 10° S 19:30:17 72° E 19:37:02 10° N visible
18 Sep 10.6 18:34:02 10° SE 18:39:13 24° E 18:44:28 10° NE visible
18 Sep 11.3 20:19:46 10° SSW 20:25:26 30° W 20:31:15 10° NW visible
19 Sep 9.6 19:27:39 10° S 19:34:19 88° W 19:41:09 10° N visible
20 Sep 10.3 18:37:26 10° SSE 18:43:15 32° E 18:49:10 10° NNE visible
20 Sep 11.7 20:24:26 10° SW 20:29:30 23° W 20:34:39 10° NW visible
21 Sep 10.0 19:31:45 10° S 19:38:22 69° W 19:45:09 10° NNW visible
22 Sep 10.0 18:41:01 10° SSE 18:47:17 42° E 18:53:39 10° NNE visible
22 Sep 12.1 20:29:23 10° SW 20:33:33 17° W 20:37:46 10° NW visible
23 Sep 10.5 19:35:57 10° SSW 19:42:25 52° W 19:49:02 10° NNW visible
24 Sep 9.8 18:44:45 10° SSE 18:51:19 56° E 18:58:00 10° N visible
24 Sep 12.5 20:34:56 10° WSW 20:37:35 12° W 20:40:15 10° WNW visible
25 Sep 11.0 19:40:16 10° SSW 19:46:28 40° W 19:52:47 10° NNW visible
26 Sep 9.7 18:48:38 10° S 18:55:21 73° E 19:02:13 10° N visible
